Location: Pian di Sc�
(43.6333°N, 11.5500°E)
Time: 17:57:48
(UTC+00:00)

SL-24 R/B - Pass Details

Date: 07 August 2020
Orbit: 717 x 1116 km, 91.9° (Epoch: 20 September)

Event Time Altitude Azimuth Distance (km) Brightness Sun altitude
Exits shadow 01:53:42 46° 220° (SW) 964 4.5 -20.5°
Maximum altitude 01:54:47 58° 268° (W) 846 4.4 -20.3°
Drops below altitude 10° 01:59:41 10° 348° (NNW) 2,275 7.4 -19.8°
Sets 02:02:06 0° 352° (N) 3,243 8.3 -19.5°
